EW3521 Weather Reports


time (UTC)temp
C
wind
direction
speed
KPH
gust
KPH
rain 1hr
cm
rain 24hr
cm
rain mn
cm
humidity
%
barometer
mb
20260509123011 12 122 0.0 3.2 0.00 0.00 0.00 63 1004.5
20260509121510 11 115 0.0 6.4 0.00 0.00 0.00 65 1004.5
20260509120012 11 139 0.0 1.6 0.00 0.00 0.00 63 1004.4
20260509114501 10 149 0.0 3.2 0.00 0.00 0.00 63 1004.5
20260509113056 10 166 0.0 1.6 0.00 0.00 0.00 65 1004.4
20260509111557 8 154 0.0 1.6 0.00 0.00 0.00 67 1004.5
20260509110056 8 142 0.0 1.6 0.00 0.00 0.00 63 1004.7
20260509104550 8 142 0.0 1.6 0.00 0.00 0.00 63 1005.0
20260509103048 8 141 0.0 3.2 0.00 0.00 0.00 62 1005.1
20260509101547 8 160 0.0 1.6 0.00 0.00 0.00 63 1005.3
20260509100053 8 164 0.0 0.0 0.00 0.00 0.00 59 1005.8
20260509094543 9 164 0.0 0.0 0.00 0.00 0.00 57 1005.9
20260509093040 8 136 0.0 3.2 0.00 0.00 0.00 56 1006.3
20260509091538 8 153 0.0 0.0 0.00 0.00 0.00 55 1006.6
20260509090035 8 153 0.0 1.6 0.00 0.00 0.00 55 1006.6
20260509084537 8 153 0.0 1.6 0.00 0.00 0.00 56 1006.8
20260509083033 7 162 0.0 0.0 0.00 0.00 0.00 57 1006.9
20260509081532 7 162 0.0 0.0 0.00 0.00 0.00 59 1007.1
20260509080040 7 135 0.0 1.6 0.00 0.00 0.00 63 1007.1
20260509074528 7 135 0.0 1.6 0.00 0.00 0.00 63 1007.3
20260509073041 7 126 0.0 1.6 0.00 0.00 0.00 68 1007.7
20260509071524 7 115 0.0 1.6 0.00 0.00 0.00 69 1007.9
20260509070021 7 178 0.0 0.0 0.00 0.00 0.00 69 1008.2
20260509064518 7 178 0.0 0.0 0.00 0.00 0.00 67 1008.5
20260509063015 7 178 0.0 0.0 0.00 0.00 0.00 69 1008.8
20260509061512 7 178 0.0 0.0 0.00 0.00 0.00 71 1009.0
20260509060015 7 178 0.0 0.0 0.00 0.00 0.00 71 1009.3
20260509054505 7 179 0.0 1.6 0.00 0.00 0.00 70 1009.7
20260509053008 7 152 0.0 0.0 0.00 0.00 0.00 61 1010.0
20260509051500 7 200 0.0 3.2 0.00 0.00 0.00 60 1010.2
20260509050058 7 99 0.0 1.6 0.00 0.00 0.00 58 1010.4
20260509044557 8 152 0.0 1.6 0.00 0.00 0.00 56 1010.4
20260509043058 8 153 0.0 1.6 0.00 0.00 0.00 55 1010.6
20260509041552 8 161 0.0 1.6 0.00 0.00 0.00 56 1010.9
20260509040100 7 150 0.0 0.0 0.00 0.00 0.00 58 1011.2
20260509034546 7 150 0.0 0.0 0.00 0.00 0.00 62 1011.4
20260509033045 7 165 0.0 0.0 0.00 0.00 0.00 61 1011.4
20260509031544 7 165 0.0 0.0 0.00 0.00 0.00 60 1011.6
20260509030045 8 165 0.0 0.0 0.00 0.00 0.00 60 1011.7
20260509024541 8 165 0.0 0.0 0.00 0.00 0.00 60 1011.7
20260509023041 8 165 0.0 0.0 0.00 0.00 0.00 56 1011.9
20260509021540 8 115 0.0 3.2 0.00 0.00 0.00 59 1012.0
20260509020039 7 108 0.0 1.6 0.00 0.00 0.00 61 1012.2
20260509014538 7 315 0.0 0.0 0.00 0.00 0.00 62 1012.0
20260509013047 8 315 0.0 0.0 0.00 0.00 0.00 61 1012.0
20260509011537 8 315 0.0 0.0 0.00 0.00 0.00 62 1011.9
20260509010037 8 315 0.0 0.0 0.00 0.00 0.00 60 1011.9
20260509004558 8 315 0.0 0.0 0.00 0.00 0.00 58 1011.9
20260509003041 9 315 0.0 0.0 0.00 0.00 0.00 54 1012.1
20260509001534 9 315 0.0 0.0 0.00 0.00 0.00 51 1012.1
20260509000031 10 315 0.0 1.6 0.00 0.00 0.00 49 1012.3
20260508234529 11 313 0.0 1.6 0.00 0.00 0.00 47 1012.3
20260508233028 11 313 0.0 1.6 0.00 0.00 0.00 46 1012.5
20260508231527 12 313 0.0 1.6 0.00 0.00 0.00 45 1012.5
20260508230040 12 105 0.0 3.2 0.00 0.00 0.00 43 1012.5
20260508224526 13 163 0.0 3.2 0.00 0.00 0.00 39 1012.5
20260508223026 13 65 0.0 3.2 0.00 0.00 0.00 43 1012.6
20260508221523 12 44 0.0 4.8 0.00 0.00 0.00 42 1012.9
20260508220019 13 112 1.6 6.4 0.00 0.00 0.00 40 1013.0
20260508214518 13 65 0.0 4.8 0.00 0.00 0.00 39 1013.1
20260508213020 13 123 0.0 6.4 0.00 0.00 0.00 41 1013.2
20260508211516 13 97 1.6 8.0 0.00 0.00 0.00 45 1013.4
20260508210010 13 104 1.6 6.4 0.00 0.00 0.00 45 1013.5
20260508204506 12 56 1.6 6.4 0.00 0.00 0.00 47 1013.7
20260508203004 12 102 0.0 4.8 0.00 0.00 0.00 45 1013.9
20260508201502 12 116 1.6 8.0 0.00 0.00 0.00 45 1014.1
20260508200103 12 162 1.6 6.4 0.00 0.00 0.00 49 1014.3
20260508194556 12 129 1.6 8.0 0.00 0.00 0.00 49 1014.5
20260508193059 12 72 3.2 6.4 0.00 0.00 0.00 48 1014.7
20260508191553 12 311 1.6 8.0 0.00 0.00 0.00 47 1014.6
20260508184600 12 18 1.6 6.4 0.00 0.00 0.00 50 1014.8
20260508183046 12 114 1.6 8.0 0.00 0.00 0.00 47 1014.8
20260508181558 12 84 3.2 11.3 0.00 0.00 0.00 46 1014.9
20260508180041 11 133 1.6 12.9 0.00 0.00 0.00 51 1015.0
20260508174543 11 86 1.6 8.0 0.00 0.00 0.00 48 1015.2
20260508173038 12 79 3.2 11.3 0.00 0.00 0.00 46 1015.4
20260508171536 11 155 3.2 8.0 0.00 0.00 0.00 50 1015.5
20260508170039 11 102 1.6 6.4 0.00 0.00 0.00 51 1015.6
20260508164533 11 85 3.2 8.0 0.00 0.00 0.00 49 1015.7
20260508163032 11 95 1.6 11.3 0.00 0.00 0.00 55 1016.0
20260508161530 11 68 1.6 6.4 0.00 0.00 0.00 50 1016.1
20260508160029 11 51 1.6 6.4 0.00 0.00 0.00 55 1016.2
20260508154522 10 126 0.0 9.7 0.00 0.00 0.00 58 1016.3
20260508153020 10 115 0.0 4.8 0.00 0.00 0.00 60 1016.5
20260508151521 10 88 1.6 6.4 0.00 0.00 0.00 56 1016.5
20260508150021 10 101 1.6 6.4 0.00 0.00 0.00 56 1016.6
20260508144532 9 115 1.6 8.0 0.00 0.00 0.00 59 1016.7
20260508143010 8 98 0.0 4.8 0.00 0.00 0.00 63 1016.7
20260508141506 7 101 0.0 3.2 0.00 0.00 0.00 67 1016.8
20260508140005 7 93 0.0 1.6 0.00 0.00 0.00 69 1016.9
20260508134600 6 89 0.0 3.2 0.00 0.00 0.00 71 1017.0
20260508133116 5 123 0.0 3.2 0.00 0.00 0.00 72 1017.0
20260508131550 5 283 0.0 1.6 0.00 0.00 0.00 74 1017.2
20260508130146 4 97 0.0 3.2 0.00 0.00 0.00 75 1017.2
20260508124543 4 118 0.0 1.6 0.00 0.00 0.00 78 1017.3